Vertical_Velocity
-1 -2 2 1 -0 4 3 2 -1 1 -2 -1 -1 -2 -2 -0 -0 -1 -2 -2 -3 -1 -1 -1 -0 -2 0 0 -2 -1 -1 -1 -0 1 -1 1 -0 0 -2 -1 -1 -2 -0 1 1 1 -1
-3 0 -0 0 -0 -2 1 2 2 1 0 -2 -1 -3 -2 -3 -1 -1 -1 -1 -1 -0 -1 -1 -2 1 -1 -0 -0 -0 -1 -1 -1 0 1 1 2 1 -1 -0 -2 0 0 -0 -1 0 0
1 -3 -1 -1 0 0 -0 -1 4 1 0 2 -1 -2 -2 -1 -2 0 0 -1 1 -1 -1 -1 -1 -2 1 0 0 0 1 -0 -1 -1 -1 0 1 2 1 0 1 0 -2 -1 -0 -0 -1
4 4 0 -2 -1 -3 -3 -1 -4 1 5 2 0 1 -1 -0 -1 -3 1 -1 -1 -0 -2 -2 -1 -2 -0 -0 -1 1 -1 -1 0 2 -2 -1 -0 -1 1 1 -1 -2 -3 -1 -2 0 -0
0 2 4 1 -2 -0 -2 -3 -1 -1 -3 4 4 -0 -0 -0 -1 -1 -3 -2 -1 -1 -3 -2 -2 -1 -1 0 -0 0 2 1 -0 -1 0 -2 -1 -1 0 -2 -4 -2 -2 0 -2 0 0
0 -2 -1 4 3 0 1 -2 -4 -6 -0 -4 0 4 0 -3 -2 -2 -1 -3 -3 2 -3 -0 -2 -2 -1 -2 -1 -1 -0 0 0 -1 1 -1 -3 -2 -2 -3 -5 -2 0 -1 -1 -2 -0
-0 -1 -1 -1 1 1 0 1 1 -1 -4 -5 -1 -2 1 1 -3 -3 -3 -3 -2 -1 -0 -2 1 -3 -1 -2 -0 -1 -3 -0 0 -1 -2 -1 -7 -2 -2 -1 -0 -1 -1 -0 -2 -0 2
1 1 -1 -1 -2 -1 1 0 1 1 -2 -5 -4 -6 -2 1 1 -2 -1 -3 -1 2 -9 2 1 -0 -1 -0 -1 0 -0 -1 0 -1 1 -6 -2 -1 -1 -0 -1 -1 -0 -2 -3 -0 0
3 1 2 3 -1 -2 -3 -4 1 2 3 -1 -4 -4 -3 -1 -2 3 -2 -3 -2 -3 1 -1 -0 -1 -1 1 1 1 1 1 -1 1 -0 -3 -4 0 -2 1 -1 -0 -1 -1 1 -2 -1
-1 5 -0 1 4 -2 -2 0 -3 -5 3 2 2 -3 -6 -4 1 -1 0 -1 -2 -2 -8 -11 0 1 0 1 -1 1 2 2 1 -4 -1 -2 1 -1 0 -0 -4 1 -2 -1 -0 -4 -4
3 3 11 4 -1 1 2 -2 -1 2 -2 -4 -2 5 3 -5 -8 1 4 -0 5 -3 -10 -17 1 0 0 1 -2 1 -1 -0 -0 -1 -8 -13 0 1 1 -4 -1 -4 -1 -0 -0 -1 -3
7 2 2 -1 -1 -1 3 -3 0 -3 2 1 -4 -3 3 5 -2 -5 -4 2 -2 -22 -20 -4 0 -0 1 1 1 1 0 -0 -1 -0 -1 -1 1 -1 -4 1 -0 -1 -3 -2 -1 -1 -4
0 0 0 -1 -2 -1 -2 -1 -6 -3 -2 -2 2 0 -4 0 6 4 -3 -5 -14 -7 -13 -3 -3 1 -0 0 1 1 0 2 -5 -5 -1 -1 -1 0 -1 -3 -2 -2 -4 -4 -8 -5 -8
-1 1 -1 1 1 -1 -1 -5 -0 -0 -4 -3 -5 -2 7 -2 1 0 3 -3 3 -6 -2 -2 -1 0 -0 -3 -1 1 1 -1 -0 -0 -1 -3 -9 -2 -2 -6 -10 -2 -6 -7 -5 -2 -5
-0 7 0 1 2 5 1 1 -2 -0 1 -2 -3 -4 -7 11 3 -3 3 6 -12 -3 -4 -1 2 1 -1 -0 -2 -1 -0 -1 -3 -4 -8 -1 -6 2 -0 0 -7 -4 -1 -6 -2 -1 -3
1 -4 1 2 5 2 2 -0 -1 -1 2 1 0 1 -12 -1 7 8 7 -7 -2 -1 0 -1 -1 -4 -1 -1 1 2 -1 -7 -2 -4 1 -3 -3 -0 0 0 2 -5 -5 -9 -3 -3 -1
-7 -11 -4 2 2 2 0 -1 -2 1 1 0 2 0 -4 3 5 17 -1 -4 -0 -8 5 0 -2 1 -2 -1 -1 -1 -5 -4 -0 1 2 -1 -3 -4 -1 -1 -7 2 1 1 -6 -4 -4
2 -1 -14 -5 -5 -2 3 -2 -2 -0 -0 -1 -0 0 3 6 17 -0 1 -3 -3 -0 -2 0 -0 -0 -2 -0 0 1 -4 -5 0 -3 -2 -4 -2 -0 -15 -3 -1 -0 -4 -5 -0 -5 -1
7 -1 -8 7 0 -4 -5 -1 -4 -3 -1 1 -0 -2 2 1 2 0 -1 -1 -0 6 -2 1 -0 2 -1 -1 3 2 -1 -8 5 -0 -4 -3 -1 -1 -2 -5 -3 1 -1 -1 -0 -1 -8
5 1 0 -1 2 -2 4 -7 1 -1 2 -1 0 -0 -1 1 -3 0 -0 0 0 -3 2 -0 1 0 5 4 0 -4 -1 -1 3 3 5 5 1 -4 -12 -10 -6 1 1 0 1 8 -10
2 3 3 0 6 -4 3 2 -9 -0 6 -3 -2 -0 -0 -0 2 -0 -0 1 -0 -1 -1 -1 1 -1 2 -0 -2 1 -1 -4 -3 1 -1 3 1 7 -6 -3 3 -2 -1 -1 4 -14 7
4 -1 2 3 1 2 3 3 -1 -1 3 -1 -5 -3 -1 -1 -1 -0 1 0 0 -0 -0 -0 -1 1 -0 1 1 0 2 0 2 -4 -0 -1 -2 1 -5 -2 3 2 -2 1 -0 -2 3
6 5 1 3 -0 1 4 -3 7 1 -1 -2 1 -0 1 -1 1 0 -2 -1 -1 -0 -1 1 -2 0 1 -1 -1 -2 -0 -2 -1 2 -0 2 1 -0 -2 0 -0 5 -9 -3 -3 -0 1
0 8 2 2 4 1 5 -2 -2 5 -0 2 -5 -3 -0 -2 1 -2 0 -1 -1 -3 -1 -1 1 0 -2 -3 -3 -0 5 3 6 -3 0 0 1 1 -1 -0 3 -5 -0 -1 -0 -4 -1
6 -8 -3 6 5 5 4 -1 3 4 4 4 2 -5 -4 -1 -1 2 2 -0 1 -1 2 -0 -2 -5 5 1 -1 -1 0 3 -3 -2 1 1 1 0 1 -1 -6 -9 -2 -0 -3 -8 -1
-0 4 -0 -0 -3 -1 1 4 0 -3 7 8 -3 2 -0 -4 -6 -2 1 -2 -2 -0 0 -2 0 2 -0 -0 1 0 -1 -0 -2 -4 0 3 2 6 0 2 -1 0 -2 2 -1 -9 -1
1 1 2 4 -4 -0 4 7 5 1 2 12 2 -3 9 -2 -8 -1 -3 -3 -0 1 -1 0 0 3 2 0 1 -0 -2 -2 -1 1 1 1 1 -1 -1 0 -4 -0 -1 1 -3 1 -1
8 4 3 4 5 -9 -11 6 5 3 2 2 -3 -5 6 -1 -5 -2 -3 -2 1 1 -2 1 -3 1 2 2 0 -2 1 1 2 1 -0 1 2 0 1 5 0 1 -4 -1 5 -11 5
-1 -0 -1 2 4 5 9 -2 2 4 5 4 3 4 -4 19 -8 -2 -4 2 -1 -0 -7 1 -1 -1 -3 -0 -0 -1 -1 -1 -2 -4 -1 -2 -9 -4 -5 -2 -3 1 -6 -3 5 -3 -17
Height
1550 1551 1551 1551 1551 1552 1553 1553 1553 1552 1552 1552 1551 1550 1549 1547 1546 1545 1543 1541 1539 1537 1534 1531 1530 1528 1527 1527 1526 1524 1523 1522 1521 1521 1521 1522 1522 1522 1523 1524 1525 1526 1528 1528 1528 1529 1529
1549 1550 1550 1551 1551 1550 1550 1551 1551 1551 1551 1550 1549 1549 1548 1546 1545 1543 1541 1540 1538 1535 1533 1531 1529 1527 1527 1527 1525 1523 1522 1522 1521 1521 1521 1522 1522 1523 1523 1524 1526 1527 1528 1529 1529 1529 1528
1547 1548 1548 1549 1549 1549 1549 1549 1550 1550 1549 1548 1548 1547 1546 1545 1543 1542 1540 1538 1536 1534 1531 1530 1528 1527 1526 1527 1524 1523 1523 1522 1522 1522 1522 1522 1522 1524 1524 1525 1526 1527 1530 1530 1529 1529 1528
1544 1544 1545 1546 1546 1546 1547 1548 1547 1547 1548 1547 1546 1546 1545 1544 1542 1540 1538 1536 1534 1532 1529 1528 1527 1526 1526 1525 1524 1524 1523 1523 1523 1523 1522 1523 1523 1524 1525 1527 1528 1529 1531 1536 1528 1528 1528
1540 1541 1542 1543 1544 1544 1545 1545 1545 1545 1545 1544 1544 1544 1543 1542 1540 1538 1536 1534 1532 1530 1528 1527 1527 1526 1526 1525 1525 1524 1523 1523 1524 1524 1524 1524 1524 1525 1526 1530 1539 1535 1542 1537 1529 1529 1529
1537 1538 1538 1539 1540 1541 1542 1543 1543 1543 1543 1542 1541 1540 1540 1539 1538 1536 1534 1532 1530 1529 1527 1526 1526 1528 1526 1526 1525 1524 1523 1523 1524 1524 1525 1525 1526 1529 1530 1535 1550 1538 1536 1532 1534 1531 1530
1532 1533 1535 1536 1536 1537 1539 1540 1540 1540 1540 1540 1539 1538 1538 1537 1536 1534 1532 1530 1532 1529 1526 1525 1525 1525 1523 1524 1523 1522 1522 1523 1523 1523 1526 1526 1532 1536 1531 1530 1529 1531 1532 1535 1532 1530 1531
1528 1529 1531 1532 1533 1535 1536 1537 1537 1537 1537 1537 1538 1538 1537 1536 1535 1533 1532 1531 1531 1532 1524 1521 1520 1520 1521 1521 1522 1521 1522 1524 1523 1525 1524 1529 1532 1527 1528 1530 1531 1533 1535 1538 1533 1532 1533
1522 1524 1526 1527 1529 1531 1532 1533 1535 1536 1535 1534 1535 1536 1536 1536 1535 1533 1531 1531 1530 1528 1525 1519 1518 1519 1520 1521 1519 1519 1521 1520 1522 1524 1526 1530 1524 1524 1525 1529 1532 1535 1538 1538 1540 1537 1533
1516 1518 1520 1522 1523 1525 1527 1529 1532 1533 1533 1532 1532 1533 1534 1534 1536 1534 1531 1530 1528 1527 1536 1522 1517 1516 1518 1517 1519 1519 1519 1522 1521 1522 1523 1525 1523 1524 1526 1527 1529 1533 1531 1533 1536 1546 1554
1508 1511 1514 1516 1519 1519 1521 1524 1527 1529 1531 1529 1529 1529 1530 1530 1533 1534 1534 1530 1529 1527 1565 1518 1515 1516 1516 1518 1516 1517 1518 1520 1521 1521 1523 1524 1525 1525 1528 1527 1527 1534 1534 1538 1541 1553 1553
1504 1505 1507 1510 1514 1515 1516 1518 1521 1523 1525 1526 1527 1527 1527 1527 1527 1530 1531 1531 1531 1541 1553 1518 1514 1513 1516 1515 1516 1515 1517 1519 1521 1522 1521 1521 1521 1522 1522 1526 1527 1531 1537 1544 1552 1559 1565
1502 1502 1503 1504 1507 1509 1512 1512 1514 1517 1519 1520 1522 1523 1525 1525 1525 1526 1527 1531 1545 1553 1516 1513 1515 1515 1512 1513 1514 1516 1517 1518 1521 1533 1530 1524 1522 1520 1520 1527 1530 1531 1539 1558 1561 1563 1541
1501 1501 1501 1502 1502 1503 1506 1507 1509 1511 1513 1514 1516 1518 1519 1522 1523 1524 1525 1529 1541 1529 1521 1508 1509 1513 1516 1511 1511 1514 1517 1520 1515 1514 1529 1532 1532 1519 1515 1514 1522 1533 1533 1545 1545 1547 1533
1498 1499 1500 1500 1500 1501 1502 1503 1505 1506 1506 1508 1511 1514 1516 1517 1519 1522 1525 1525 1524 1518 1507 1507 1510 1513 1514 1509 1509 1512 1516 1514 1507 1510 1517 1524 1519 1508 1510 1512 1514 1528 1534 1525 1530 1536 1551
1496 1497 1498 1500 1498 1498 1500 1500 1502 1503 1504 1504 1505 1508 1511 1513 1516 1516 1518 1508 1510 1504 1503 1504 1509 1506 1511 1507 1510 1512 1512 1501 1500 1498 1499 1503 1515 1511 1509 1509 1513 1517 1516 1531 1538 1537 1535
1491 1493 1496 1498 1497 1497 1497 1498 1500 1501 1503 1502 1503 1503 1503 1506 1513 1511 1499 1498 1499 1500 1502 1506 1505 1504 1507 1503 1504 1507 1498 1493 1492 1490 1493 1499 1508 1518 1516 1510 1505 1516 1517 1516 1516 1520 1526
1487 1489 1492 1494 1495 1495 1495 1497 1498 1499 1500 1501 1501 1501 1498 1502 1506 1498 1493 1493 1496 1495 1499 1498 1498 1500 1501 1501 1501 1501 1496 1488 1486 1488 1496 1494 1499 1513 1506 1498 1497 1496 1491 1496 1503 1503 1509
1482 1484 1487 1490 1491 1492 1494 1495 1496 1497 1498 1498 1499 1496 1495 1495 1493 1490 1491 1489 1490 1490 1491 1493 1491 1489 1494 1495 1502 1490 1488 1487 1484 1488 1490 1490 1497 1504 1494 1502 1498 1497 1491 1486 1486 1491 1480
1476 1479 1481 1484 1487 1489 1490 1492 1494 1496 1495 1496 1497 1496 1494 1495 1497 1499 1498 1495 1493 1494 1494 1494 1492 1487 1486 1483 1484 1477 1481 1482 1483 1483 1483 1483 1485 1485 1470 1470 1480 1490 1485 1479 1478 1477 1468
1470 1474 1475 1479 1483 1484 1487 1488 1491 1494 1493 1495 1495 1496 1495 1496 1497 1499 1500 1499 1497 1496 1497 1496 1494 1497 1498 1491 1489 1484 1490 1490 1485 1487 1487 1487 1474 1478 1465 1462 1468 1469 1471 1469 1471 1459 1466
1464 1468 1472 1474 1477 1479 1483 1484 1488 1491 1491 1495 1494 1495 1496 1497 1497 1498 1497 1498 1498 1498 1499 1497 1497 1498 1500 1498 1497 1499 1497 1495 1495 1493 1491 1490 1482 1479 1460 1458 1461 1460 1453 1453 1454 1452 1451
1460 1464 1467 1469 1471 1474 1476 1479 1484 1487 1488 1490 1493 1492 1495 1494 1495 1496 1496 1496 1497 1499 1498 1496 1497 1497 1496 1498 1498 1497 1496 1499 1499 1498 1494 1492 1486 1481 1470 1471 1465 1455 1440 1443 1444 1445 1446
1455 1458 1462 1465 1467 1469 1472 1477 1479 1483 1484 1488 1490 1492 1494 1493 1493 1491 1491 1493 1495 1496 1498 1496 1496 1497 1497 1496 1495 1492 1491 1489 1489 1488 1488 1487 1485 1480 1472 1473 1460 1439 1443 1444 1445 1437 1436
1449 1452 1455 1460 1463 1466 1467 1472 1476 1477 1481 1484 1486 1489 1491 1490 1490 1489 1489 1490 1490 1491 1495 1495 1494 1494 1495 1495 1495 1492 1487 1484 1479 1477 1477 1481 1484 1475 1468 1462 1449 1443 1441 1443 1440 1436 1433
1445 1449 1452 1454 1457 1461 1465 1467 1469 1473 1477 1480 1482 1486 1487 1489 1485 1485 1485 1486 1487 1489 1492 1491 1490 1490 1493 1494 1493 1492 1487 1478 1475 1471 1471 1473 1477 1476 1467 1461 1455 1447 1443 1442 1440 1445 1434
1441 1444 1448 1450 1454 1457 1460 1463 1464 1467 1472 1475 1475 1480 1482 1483 1482 1483 1483 1484 1484 1486 1489 1489 1489 1491 1491 1491 1489 1490 1486 1478 1480 1472 1471 1470 1470 1468 1464 1459 1454 1451 1446 1444 1453 1452 1443
1437 1440 1443 1446 1449 1452 1455 1458 1461 1463 1466 1470 1472 1475 1478 1477 1478 1479 1481 1482 1480 1483 1486 1487 1489 1487 1488 1488 1491 1487 1486 1481 1477 1479 1477 1474 1469 1463 1457 1454 1449 1454 1447 1452 1457 1448 1446
1434 1436 1438 1441 1445 1448 1450 1454 1457 1459 1462 1466 1468 1470 1473 1472 1474 1473 1475 1475 1477 1478 1482 1484 1484 1482 1483 1486 1486 1486 1488 1488 1483 1484 1466 1472 1464 1464 1465 1455 1448 1448 1452 1451 1450 1445 1442